FW8630 Weather Reports


time (UTC)temp
F
wind
direction
speed
knots
gust
knots
rain 1hr
in
rain 24hr
in
rain mn
in
humidity
%
barometer
mb
20260502123045 62 186 11.3 23.5 0.00 0.00 0.00 73 1017.6
20260502121541 62 360 10.4 19.1 0.00 0.00 0.00 71 1017.9
20260502114530 62 360 11.3 25.2 0.00 0.00 0.00 72 1018.4
20260502113028 61 198 12.2 22.6 0.00 0.00 0.00 74 1018.7
20260502111526 60 206 9.6 20.0 0.00 0.00 0.00 76 1018.9
20260502110031 60 168 9.6 18.2 0.00 0.00 0.00 76 1019.2
20260502104521 60 200 8.7 18.2 0.00 0.00 0.00 75 1019.4
20260502103022 60 203 8.7 18.2 0.00 0.00 0.00 75 1019.6
20260502101519 59 223 9.6 17.4 0.00 0.00 0.00 76 1019.6
20260502091510 59 219 6.1 9.6 0.00 0.00 0.00 79 1020.1
20260502070047 56 235 2.6 7.0 0.00 0.00 0.00 80 1021.1
20260502064543 55 240 2.6 6.1 0.00 0.00 0.00 81 1021.1
20260502063047 54 233 2.6 5.2 0.00 0.00 0.00 83 1021.2
20260502061539 54 219 1.7 4.3 0.00 0.00 0.00 83 1021.4
20260502060034 53 212 1.7 7.0 0.00 0.00 0.00 84 1021.5
20260502054536 53 236 3.5 7.8 0.00 0.00 0.00 85 1021.5
20260502053026 53 234 3.5 6.1 0.00 0.00 0.00 85 1021.3
20260502051520 53 211 2.6 4.3 0.00 0.00 0.00 84 1021.2
20260502050024 53 215 1.7 4.3 0.00 0.00 0.00 85 1021.2
20260502044512 52 198 2.6 7.0 0.00 0.00 0.00 85 1021.2
20260502043009 51 229 1.7 3.5 0.00 0.00 0.00 85 1021.3
20260502041507 50 182 0.9 3.5 0.00 0.00 0.00 87 1021.2
20260502033058 50 269 0.0 2.6 0.00 0.00 0.00 88 1021.2
20260502031555 51 243 2.6 7.8 0.00 0.00 0.00 85 1021.3
20260502030151 51 277 3.5 9.6 0.00 0.00 0.00 86 1021.4
20260502023049 50 240 2.6 7.8 0.00 0.00 0.00 88 1021.5
20260502021542 50 256 2.6 9.6 0.00 0.00 0.00 86 1021.5
20260502020038 49 248 2.6 10.4 0.00 0.00 0.00 89 1021.5
20260502014536 44 271 0.9 3.5 0.00 0.00 0.00 95 1021.7
20260502013043 41 288 0.9 5.2 0.00 0.00 0.00 97 1021.6
20260502011534 41 236 0.0 2.6 0.00 0.00 0.00 96 1021.7
20260502010029 41 182 0.0 2.6 0.00 0.00 0.00 96 1021.8
20260502004546 42 178 0.0 1.7 0.00 0.00 0.00 96 1021.9
20260502003026 42 178 0.9 2.6 0.00 0.00 0.00 96 1021.9
20260502001526 42 179 0.9 1.7 0.00 0.00 0.00 96 1021.9
20260502000027 43 179 0.0 1.7 0.00 0.00 0.00 95 1022.1
20260501234527 43 179 0.9 1.7 0.00 0.00 0.00 95 1022.1
20260501233020 44 179 0.0 2.6 0.00 0.00 0.00 95 1022.1
20260501231524 44 179 0.9 1.7 0.00 0.00 0.00 94 1022.1
20260501230015 45 179 0.9 2.6 0.00 0.00 0.00 94 1022.0
20260501224514 45 180 0.9 2.6 0.00 0.00 0.00 95 1022.1
20260501223013 45 180 0.0 3.5 0.00 0.00 0.00 95 1022.3
20260501221511 45 180 0.9 2.6 0.00 0.00 0.00 95 1022.2
20260501220008 45 180 0.0 0.9 0.00 0.00 0.00 95 1022.2
20260501214507 46 180 0.9 2.6 0.00 0.00 0.00 94 1022.1
20260501213008 47 179 0.0 1.7 0.00 0.00 0.00 93 1022.3
20260501211507 48 180 0.0 0.9 0.00 0.00 0.00 92 1022.3
20260501210007 49 180 0.0 0.9 0.00 0.00 0.00 91 1022.2
20260501204507 50 190 1.7 3.5 0.00 0.00 0.00 90 1022.0
20260501203006 51 211 0.0 0.0 0.00 0.00 0.00 89 1022.2
20260501201505 52 211 0.0 0.9 0.00 0.00 0.00 87 1022.2
20260501200005 53 211 0.0 2.6 0.00 0.00 0.00 86 1022.3
20260501194510 54 212 1.7 3.5 0.00 0.00 0.00 83 1022.4
20260501193009 55 214 1.7 3.5 0.00 0.00 0.00 81 1022.4
20260501191503 56 240 0.9 2.6 0.00 0.00 0.00 81 1022.2
20260501190003 58 240 0.9 1.7 0.00 0.00 0.00 79 1022.3
20260501184502 59 242 0.9 2.6 0.00 0.00 0.00 76 1022.2
20260501183002 60 178 0.9 2.6 0.00 0.00 0.00 71 1022.1
20260501181603 60 189 0.0 3.5 0.00 0.00 0.00 71 1022.1
20260501180100 60 188 0.9 4.3 0.00 0.00 0.00 70 1022.2
20260501174653 60 202 1.7 5.2 0.00 0.00 0.00 72 1022.2
20260501173105 61 182 1.7 3.5 0.00 0.00 0.00 70 1022.2
20260501171556 61 181 0.9 5.2 0.00 0.00 0.00 71 1022.3
20260501164608 61 202 1.7 7.8 0.00 0.00 0.00 71 1022.5
20260501163104 62 213 3.5 8.7 0.00 0.00 0.00 70 1022.5
20260501161556 64 217 4.3 7.0 0.00 0.00 0.00 68 1022.6
20260501160056 66 210 3.5 5.2 0.00 0.00 0.00 67 1022.7
20260501154617 66 232 2.6 4.3 0.00 0.00 0.00 74 1022.7
20260501153056 67 236 1.7 3.5 0.00 0.00 0.00 72 1022.9
20260501151606 67 235 2.6 4.3 0.00 0.00 0.00 71 1023.0
20260501150054 66 213 2.6 6.1 0.00 0.00 0.00 70 1023.2
20260501144543 67 230 2.6 5.2 0.00 0.00 0.00 71 1023.3
20260501143051 67 234 2.6 7.0 0.00 0.00 0.00 68 1023.4
20260501141540 66 221 3.5 7.0 0.00 0.00 0.00 68 1023.6